Regional Weather Roundup
Issued by NWS

Home | Current Version | Previous Version | Text Only | Print | Product List | Glossary Off
Versions: 1 2 3 4 5 6 7 8 9 10 11 12 13 14 15 16 17 18 19 20 21 22 23 24 25 26 27 28 29 30 31 32 33 34 35 36 37 38 39 40 41 42 43 44 45 46 47 48 49 50

776
ASUS45 KCYS 220610
RWRWY

WYOMING REGIONAL WEATHER ROUNDUP
NATIONAL WEATHER SERVICE CHEYENNE WY
1200 AM MDT FRI SEP 22 2017

NOTE:  "FAIR" INDICATES FEW OR NO CLOUDS BELOW 12,000 FEET
WITH NO SIGNIFICANT WEATHER AND/OR OBSTRUCTIONS TO VISIBILITY.

WYZ001-220700-
YELLOWSTONE NATIONAL PARK

CITY           SKY/WX    TMP DP  RH WIND       PRES   REMARKS
LK YELLOWSTONE NOT AVBL
W YELLOWSTONE  NOT AVBL

$$
WYZ002>013-054>058-071-098>099-220700-
NORTHERN WYOMING

CITY           SKY/WX    TMP DP  RH WIND       PRES   REMARKS
JACKSON        CLOUDY    34  32  93 N5        29.79S WCI  30
CODY           MIX PCPN  37  34  89 N14       29.88S WCI  28
GREYBULL       CLOUDY    45  39  79 NW16      29.83R
6HR MIN TEMP:  45; 6HR MAX TEMP:  51; 6HR PCP: TRACE;

WORLAND        CLOUDY    45  39  79 NW10      29.83S
6HR MIN TEMP:  45; 6HR MAX TEMP:  51; 6HR PCP: TRACE;

SHERIDAN       CLOUDY    46  41  82 NW6       29.91F
6HR MIN TEMP:  45; 6HR MAX TEMP:  49;

BUFFALO        CLOUDY    45  36  70 NW9       29.91S
6HR MIN TEMP:  43; 6HR MAX TEMP:  49; 6HR PCP: TRACE;

GILLETTE       FAIR      44  33  65 N13       29.85F
6HR MIN TEMP:  43; 6HR MAX TEMP:  60;

HULETT         FAIR      46  32  57 NE7       29.87R
NEWCASTLE      FAIR      54  36  50 N10       29.74S

$$
WYZ014>020-022>026-101>103-220700-
CENTRAL WYOMING

CITY           SKY/WX    TMP DP  RH WIND       PRES   REMARKS
BIG PINEY      CLOUDY    45  43  93 E7        29.74S
6HR MIN TEMP:  45; 6HR MAX TEMP:  54; 6HR PCP:  0.01;

PINEDALE       DRIZZLE   43  43 100 W5        29.76F
DUBOIS         LGT RAIN  37  36  93 SE15      29.79R WCI  28
LANDER           N/A    N/A N/A N/A MISG      29.78F
RIVERTON       MOCLDY    44  38  79 N12       29.78R
6HR MIN TEMP:  43; 6HR MAX TEMP:  53;

CASPER         FAIR      42  36  79 NE14      29.85S
6HR MIN TEMP:  42; 6HR MAX TEMP:  66;

DOUGLAS        FAIR      46  35  65 NW12      29.83R
6HR MIN TEMP:  46; 6HR MAX TEMP:  77;


$$
WYZ021-027>030-104>119-220700-
SOUTHERN WYOMING

CITY           SKY/WX    TMP DP  RH WIND       PRES   REMARKS
EVANSTON       FLURRIES  34  34 100 W12       29.84R WCI  25
6HR MIN TEMP:  33; 6HR MAX TEMP:  53; 6HR PCP: TRACE;

KEMMERER       LGT RAIN  36  34  93 W18G33    29.81R WCI  25
FORT BRIDGER   CLOUDY    40  38  95 NW17G25   29.81R WCI  31
ROCK SPRINGS   CLOUDY    53  36  52 N9        29.73R
6HR MIN TEMP:  53; 6HR MAX TEMP:  69;

DIXON          FAIR      65  17  16 S12G20    29.78S
RAWLINS        FAIR      51  26  37 E9        29.78S
6HR MIN TEMP:  48; 6HR MAX TEMP:  73;

SARATOGA       FAIR      48  28  46 SE12      29.82S
LARAMIE        FAIR      47  21  35 E6        29.83S
6HR MIN TEMP:  46; 6HR MAX TEMP:  74; 6HR PCP: TRACE;

CHEYENNE       FAIR      52  28  39 NW8       29.73R
6HR MIN TEMP:  50; 6HR MAX TEMP:  80;

TORRINGTON     FAIR      59  37  44 NW10      29.65R
6HR MIN TEMP:  59; 6HR MAX TEMP:  83;

PINE BLUFFS    FAIR      63  27  25 S9        29.67S

$$




USA.gov is the U.S. government's official web portal to all federal, state and local government web resources and services.